Вернуться в каталог

FENGYUN 1C DEB

АктивенPO
NORAD 35210·DEBRIS·🇨🇳 China

Запущен May 10, 1999 с Taiyuan Satellite Launch Center

Loading…

Ближайшие Пролёты (ближайшие 24 часа)

TLE

СвежийSource: Space-Track

Эпоха: Sep 14, 2026, 12:55 UTC

1 35210U 99025DPS 26257.53860359  .00003494  00000-0  11854-2 0  9998
2 35210  99.0926 281.2040 0048893 152.3749   0.9697 14.36699985940798

Отслеживайте FENGYUN 1C DEB в реальном времени с AllMySat

Download on the App Store